This is the latest recevied weather packets stored in our database for station/object KD9NSC. If no packets are shown the sender has not sent any weather packets the latest 1 day(s).
| Time | Temp. | Humidity | Pressure | Rain* | Wind** | Luminosity | Snow |
|---|---|---|---|---|---|---|---|
| 1778016174 | 10.56° C | 62% | 1010.6 hPa | 0 mm | 0 m/s | 21 W/m² | - |
| 1778015870 | 10° C | 65% | 1010.8 hPa | 0 mm | 0 m/s | 23 W/m² | - |
| 1778015568 | 10° C | 62% | 1010.6 hPa | 0 mm | 0 m/s | 21 W/m² | - |
| 1778015264 | 10° C | 62% | 1010.8 hPa | 0 mm | 0 m/s | 22 W/m² | - |
| 1778014961 | 10° C | 63% | 1010.9 hPa | 0 mm | 0 m/s | 22 W/m² | - |
| 1778014658 | 10° C | 61% | 1011 hPa | 0 mm | 0 m/s | 23 W/m² | - |
| 1778014356 | 10° C | 67% | 1010.9 hPa | 0 mm | 0 m/s | 23 W/m² | - |
| 1778014052 | 10.56° C | 61% | 1011.1 hPa | 0 mm | 0 m/s | 22 W/m² | - |
| 1778013750 | 10.56° C | 62% | 1011.1 hPa | 0 mm | 0.45 m/s, 294° | 23 W/m² | - |
| 1778013447 | 10.56° C | 61% | 1011.1 hPa | 0 mm | 0 m/s | 26 W/m² | - |
| 1778013144 | 10.56° C | 60% | 1011.1 hPa | 0 mm | 0 m/s | 26 W/m² | - |
| 1778012839 | 11.11° C | 67% | 1010.8 hPa | 0 mm | 0 m/s | 30 W/m² | - |
| 1778012536 | 11.11° C | 62% | 1010.9 hPa | 0 mm | 0 m/s | 29 W/m² | - |
| 1778012233 | 11.11° C | 61% | 1010.9 hPa | 0 mm | 0 m/s | 31 W/m² | - |
| 1778011931 | 11.11° C | 62% | 1010.7 hPa | 0 mm | 0 m/s | 32 W/m² | - |
| 1778011628 | 10.56° C | 60% | 1010.5 hPa | 0 mm | 0 m/s | 31 W/m² | - |
| 1778011325 | 10.56° C | 61% | 1010.6 hPa | 0 mm | 0 m/s | 30 W/m² | - |
| 1778011021 | 11.11° C | 59% | 1010.6 hPa | 0 mm | 0 m/s | 30 W/m² | - |
| 1778010718 | 11.11° C | 63% | 1010.8 hPa | 0 mm | 0 m/s | 30 W/m² | - |
| 1778010416 | 11.11° C | 65% | 1010.8 hPa | 0 mm | 0 m/s | 34 W/m² | - |
| 1778010111 | 11.11° C | 65% | 1010.9 hPa | 0 mm | 0 m/s | 36 W/m² | - |
| 1778009808 | 11.11° C | 58% | 1011.2 hPa | 0 mm | 0 m/s | 38 W/m² | - |
| 1778009505 | 11.11° C | 62% | 1010.9 hPa | 0 mm | 0 m/s | 38 W/m² | - |
| 1778009204 | 11.11° C | 62% | 1011 hPa | 0 mm | 0 m/s | 41 W/m² | - |
| 1778008901 | 11.67° C | 64% | 1011.1 hPa | 0 mm | 0 m/s | 42 W/m² | - |
* Rain latest hour (hover to see other rain measurements)
** Current wind speed in m/s (hover to see current wind gust speed)